This is the latest recevied weather packets stored in our database for station/object AC0MR. If no packets are shown the sender has not sent any weather packets the latest 1 day(s).
| Time | Temp. | Humidity | Pressure | Rain* | Wind** | Luminosity | Snow |
|---|---|---|---|---|---|---|---|
| 1778042118 | 7.78° C | 54% | 1011.6 hPa | 0 mm | 0.45 m/s, 338° | 0 W/m² | - |
| 1778041517 | 8.33° C | 53% | 1011.6 hPa | 0 mm | 0.45 m/s, 338° | 0 W/m² | - |
| 1778040918 | 8.33° C | 51% | 1011.4 hPa | 0 mm | 0.45 m/s, 338° | 0 W/m² | - |
| 1778040318 | 8.33° C | 51% | 1011.3 hPa | 0 mm | 0.45 m/s, 338° | 0 W/m² | - |
| 1778039718 | 8.33° C | 51% | 1011.2 hPa | 0 mm | 0.89 m/s, 338° | 0 W/m² | - |
| 1778039117 | 8.33° C | 51% | 1011.2 hPa | 0 mm | 0.89 m/s, 338° | 0 W/m² | - |
| 1778038518 | 8.33° C | 51% | 1011.2 hPa | 0 mm | 0.89 m/s, 338° | 0 W/m² | - |
| 1778037918 | 8.89° C | 50% | 1011.3 hPa | 0 mm | 0.89 m/s, 315° | 0 W/m² | - |
| 1778037320 | 8.89° C | 50% | 1011.3 hPa | 0 mm | 0.89 m/s, 315° | 0 W/m² | - |
| 1778036719 | 8.89° C | 49% | 1011.1 hPa | 0 mm | 0.45 m/s, 338° | 0 W/m² | - |
| 1778036119 | 9.44° C | 49% | 1011 hPa | 0 mm | 1.34 m/s, 315° | 0 W/m² | - |
| 1778035518 | 9.44° C | 48% | 1010.8 hPa | 0 mm | 0.89 m/s, 338° | 0 W/m² | - |
| 1778034920 | 9.44° C | 47% | 1010.7 hPa | 0 mm | 1.79 m/s, 315° | 0 W/m² | - |
| 1778034319 | 10° C | 46% | 1010.6 hPa | 0 mm | 1.79 m/s, 338° | 0 W/m² | - |
| 1778033719 | 10° C | 46% | 1010.4 hPa | 0 mm | 0.89 m/s, 315° | 0 W/m² | - |
| 1778033119 | 10.56° C | 45% | 1010.3 hPa | 0 mm | 1.79 m/s, 338° | 0 W/m² | - |
| 1778032519 | 10.56° C | 44% | 1010.3 hPa | 0 mm | 1.79 m/s, 338° | 0 W/m² | - |
| 1778031919 | 10.56° C | 43% | 1009.9 hPa | 0 mm | 2.68 m/s, 338° | 0 W/m² | - |
| 1778031319 | 11.11° C | 43% | 1009.6 hPa | 0 mm | 2.68 m/s, 315° | 0 W/m² | - |
| 1778030719 | 11.11° C | 43% | 1009.4 hPa | 0 mm | 2.68 m/s, 338° | 0 W/m² | - |
| 1778030128 | 11.67° C | 42% | 1009.3 hPa | 0 mm | 2.68 m/s, 338° | 0 W/m² | - |
| 1778029519 | 11.67° C | 41% | 1009.1 hPa | 0 mm | 2.68 m/s, 338° | 2 W/m² | - |
| 1778028919 | 12.22° C | 41% | 1009.1 hPa | 0 mm | 1.79 m/s, 315° | 9 W/m² | - |
| 1778028319 | 12.22° C | 40% | 1008.8 hPa | 0 mm | 0.89 m/s, 315° | 16 W/m² | - |
| 1778027719 | 12.78° C | 40% | 1008.6 hPa | 0 mm | 1.34 m/s, 293° | 28 W/m² | - |
* Rain latest hour (hover to see other rain measurements)
** Current wind speed in m/s (hover to see current wind gust speed)